LEMUR-2-CUBECHEESE

Last updated on Mon Mar 06 2017 00:17:46 GMT+0000 (Coordinated Universal Time)

1 41597U 16019D 17064.73501903 .05736840 12249-4 99245-3 0 9996 2 41597 51.6176 156.5068 0006727 328.4083 31.6535 16.32067600 40508

Satellite not in orbit